This is the latest recevied weather packets stored in our database for station/object N3RPH-10. If no packets are shown the sender has not sent any weather packets the latest 10 day(s).
| Time | Temp. | Humidity | Pressure | Rain* | Wind** | Luminosity | Snow |
|---|---|---|---|---|---|---|---|
| 1788129341 | 28.89° C | 63% | 1016.4 hPa | 0 mm | - | 83 W/m² | - |
| 1788129042 | 28.89° C | 62% | 1016.4 hPa | 0 mm | - | 116 W/m² | - |
| 1788128742 | 28.89° C | 61% | 1016.5 hPa | 0 mm | - | 148 W/m² | - |
| 1788128441 | 28.89° C | 61% | 1016.5 hPa | 0 mm | - | 169 W/m² | - |
| 1788128141 | 28.89° C | 62% | 1016.4 hPa | 0 mm | - | 173 W/m² | - |
| 1788127842 | 28.33° C | 62% | 1016.3 hPa | 0 mm | - | 169 W/m² | - |
| 1788127541 | 28.89° C | 62% | 1016.3 hPa | 0 mm | - | 134 W/m² | - |
| 1788127241 | 28.33° C | 62% | 1016.2 hPa | 0 mm | - | 154 W/m² | - |
| 1788126940 | 28.33° C | 62% | 1016.1 hPa | 0 mm | - | 115 W/m² | - |
| 1788126640 | 28.89° C | 61% | 1016.2 hPa | 0 mm | - | 125 W/m² | - |
| 1788126341 | 28.89° C | 60% | 1016.2 hPa | 0 mm | - | 192 W/m² | - |
| 1788126041 | 28.89° C | 60% | 1016.3 hPa | 0 mm | - | 215 W/m² | - |
| 1788125742 | 28.89° C | 60% | 1016.3 hPa | 0 mm | - | 268 W/m² | - |
| 1788125442 | 28.89° C | 60% | 1016.3 hPa | 0 mm | - | 284 W/m² | - |
| 1788125143 | 28.33° C | 60% | 1016.3 hPa | 0 mm | - | 298 W/m² | - |
| 1788124841 | 28.89° C | 60% | 1016.3 hPa | 0 mm | - | 219 W/m² | - |
| 1788124541 | 28.89° C | 60% | 1016.4 hPa | 0 mm | - | 362 W/m² | - |
| 1788124242 | 28.89° C | 60% | 1016.3 hPa | 0 mm | - | 337 W/m² | - |
| 1788123941 | 28.33° C | 60% | 1016.3 hPa | 0 mm | - | 364 W/m² | - |
| 1788123642 | 28.33° C | 60% | 1016.5 hPa | 0 mm | - | 298 W/m² | - |
| 1788123341 | 28.89° C | 60% | 1016.4 hPa | 0 mm | - | 198 W/m² | - |
| 1788123041 | 28.33° C | 60% | 1016.5 hPa | 0 mm | - | 277 W/m² | - |
| 1788122742 | 28.89° C | 59% | 1016.4 hPa | 0 mm | - | 308 W/m² | - |
| 1788122441 | 28.89° C | 58% | 1016.5 hPa | 0 mm | - | 317 W/m² | - |
| 1788122141 | 28.89° C | 58% | 1016.5 hPa | 0 mm | - | 421 W/m² | - |
* Rain latest hour (hover to see other rain measurements)
** Current wind speed in m/s (hover to see current wind gust speed)